| time (UTC) | temp F | wind direction | speed MPH | gust MPH | rain 1hr in | rain 24hr in | rain mn in | humidity % | barometer mb |
| 20260506221534 | 44 | 269 | 7.0 | 16.0 | 0.00 | 0.00 | 0.00 | 68 | |
| 20260506221024 | 45 | 0.0 | 0.0 | 0.00 | 0.00 | 0.00 | 99 | ||
| 20260506220551 | 44 | 273 | 7.0 | 14.0 | 0.00 | 0.00 | 0.00 | 69 | |
| 20260506220114 | 45 | 0.0 | 0.0 | 0.00 | 0.00 | 0.00 | 99 | ||
| 20260506215535 | 44 | 264 | 10.0 | 16.0 | 0.00 | 0.00 | 0.00 | 68 | |
| 20260506215021 | 45 | 0.0 | 1.0 | 0.00 | 0.00 | 0.00 | 99 | ||
| 20260506214527 | 44 | 269 | 6.0 | 13.0 | 0.00 | 0.00 | 0.00 | 74 | |
| 20260506214050 | 44 | 0.0 | 0.0 | 0.00 | 0.00 | 0.00 | 99 | ||
| 20260506213536 | 43 | 258 | 6.0 | 11.0 | 0.00 | 0.00 | 0.00 | 76 | |
| 20260506213038 | 43 | 0.0 | 0.0 | 0.00 | 0.00 | 0.00 | 99 | ||
| 20260506212527 | 43 | 262 | 6.0 | 13.0 | 0.00 | 0.00 | 0.00 | 81 | |
| 20260506212026 | 43 | 0.0 | 0.0 | 0.00 | 0.00 | 0.00 | 99 | ||
| 20260506211535 | 43 | 252 | 5.0 | 8.0 | 0.00 | 0.00 | 0.00 | 82 | |
| 20260506211034 | 43 | 270 | 0.0 | 1.0 | 0.00 | 0.00 | 0.00 | 99 | |
| 20260506210527 | 44 | 270 | 10.0 | 24.0 | 0.00 | 0.00 | 0.00 | 79 | |
| 20260506210047 | 44 | 270 | 0.0 | 4.0 | 0.00 | 0.00 | 0.00 | 99 | |
| 20260506205535 | 45 | 285 | 11.0 | 22.0 | 0.00 | 0.00 | 0.00 | 81 | |
| 20260506205031 | 44 | 0.0 | 1.0 | 0.00 | 0.00 | 0.00 | 99 | ||
| 20260506204527 | 45 | 268 | 7.0 | 15.0 | 0.00 | 0.00 | 0.00 | 86 | |
| 20260506204020 | 44 | 293 | 0.0 | 2.0 | 0.00 | 0.01 | 0.00 | 99 | |
| 20260506203535 | 45 | 272 | 9.0 | 21.0 | 0.00 | 0.00 | 0.00 | 88 | |
| 20260506203029 | 44 | 270 | 1.0 | 9.0 | 0.00 | 0.01 | 0.00 | 99 | |
| 20260506202526 | 45 | 278 | 8.0 | 16.0 | 0.00 | 0.00 | 0.00 | 89 | |
| 20260506202054 | 44 | 0.0 | 0.0 | 0.00 | 0.01 | 0.00 | 99 | ||
| 20260506201534 | 45 | 277 | 8.0 | 17.0 | 0.00 | 0.00 | 0.00 | 90 | |
| 20260506201050 | 44 | 207 | 0.0 | 2.0 | 0.00 | 0.01 | 0.00 | 99 | |
| 20260506200527 | 44 | 276 | 7.0 | 16.0 | 0.00 | 0.00 | 0.00 | 93 | |
| 20260506200033 | 44 | 293 | 0.0 | 3.0 | 0.00 | 0.01 | 0.00 | 99 | |
| 20260506195537 | 44 | 277 | 5.0 | 13.0 | 0.00 | 0.00 | 0.00 | 94 | |
| 20260506195024 | 44 | 0.0 | 0.0 | 0.00 | 0.01 | 0.00 | 99 | ||
| 20260506194527 | 44 | 291 | 5.0 | 11.0 | 0.00 | 0.00 | 0.00 | 93 | |
| 20260506194032 | 44 | 0.0 | 4.0 | 0.00 | 0.01 | 0.00 | 99 | ||
| 20260506193537 | 45 | 285 | 6.0 | 14.0 | 0.00 | 0.00 | 0.00 | 93 | |
| 20260506193020 | 45 | 0.0 | 0.0 | 0.00 | 0.01 | 0.00 | 99 | ||
| 20260506192527 | 45 | 280 | 7.0 | 14.0 | 0.00 | 0.00 | 0.00 | 93 | |
| 20260506192033 | 45 | 0.0 | 0.0 | 0.00 | 0.01 | 0.00 | 99 | ||
| 20260506191535 | 45 | 287 | 6.0 | 13.0 | 0.00 | 0.00 | 0.00 | 92 | |
| 20260506191036 | 45 | 0.0 | 1.0 | 0.00 | 0.01 | 0.00 | 99 | ||
| 20260506190527 | 45 | 280 | 5.0 | 9.0 | 0.00 | 0.00 | 0.00 | 91 | |
| 20260506190025 | 45 | 0.0 | 0.0 | 0.00 | 0.01 | 0.00 | 99 | ||
| 20260506185539 | 45 | 289 | 6.0 | 13.0 | 0.00 | 0.00 | 0.00 | 89 | |
| 20260506185033 | 45 | 0.0 | 0.0 | 0.00 | 0.01 | 0.00 | 99 | ||
| 20260506184530 | 45 | 288 | 5.0 | 13.0 | 0.00 | 0.00 | 0.00 | 88 | |
| 20260506184045 | 45 | 0.0 | 0.0 | 0.00 | 0.01 | 0.00 | 99 | ||
| 20260506183539 | 45 | 277 | 5.0 | 13.0 | 0.00 | 0.00 | 0.00 | 87 | |
| 20260506183030 | 45 | 0.0 | 0.0 | 0.00 | 0.01 | 0.00 | 99 | ||
| 20260506182527 | 45 | 285 | 5.0 | 13.0 | 0.00 | 0.00 | 0.00 | 86 | |
| 20260506182020 | 45 | 0.0 | 0.0 | 0.00 | 0.01 | 0.00 | 99 | ||
| 20260506181555 | 45 | 284 | 7.0 | 16.0 | 0.00 | 0.00 | 0.00 | 86 | |
| 20260506181028 | 45 | 0.0 | 0.0 | 0.00 | 0.01 | 0.00 | 99 | ||
| 20260506180527 | 45 | 268 | 4.0 | 9.0 | 0.00 | 0.00 | 0.00 | 85 | |
| 20260506180036 | 44 | 0.0 | 0.0 | 0.00 | 0.01 | 0.00 | 99 | ||
| 20260506175535 | 44 | 278 | 3.0 | 6.0 | 0.00 | 0.00 | 0.00 | 86 | |
| 20260506175026 | 44 | 0.0 | 0.0 | 0.00 | 0.01 | 0.00 | 99 | ||
| 20260506174531 | 44 | 274 | 2.0 | 7.0 | 0.00 | 0.00 | 0.00 | 86 | |
| 20260506174033 | 43 | 0.0 | 0.0 | 0.00 | 0.01 | 0.00 | 99 | ||
| 20260506173615 | 43 | 271 | 2.0 | 6.0 | 0.00 | 0.00 | 0.00 | 86 | |
| 20260506173022 | 42 | 0.0 | 0.0 | 0.00 | 0.01 | 0.00 | 99 | ||
| 20260506172527 | 43 | 265 | 2.0 | 6.0 | 0.00 | 0.00 | 0.00 | 87 | |
| 20260506172029 | 42 | 0.0 | 0.0 | 0.00 | 0.01 | 0.00 | 99 | ||
| 20260506171558 | 42 | 278 | 2.0 | 3.0 | 0.00 | 0.00 | 0.00 | 87 | |
| 20260506171225 | 42 | 0.0 | 0.0 | 0.00 | 0.01 | 0.00 | 99 | ||
| 20260506170527 | 42 | 261 | 2.0 | 5.0 | 0.00 | 0.00 | 0.00 | 87 | |
| 20260506170029 | 41 | 0.0 | 0.0 | 0.00 | 0.01 | 0.00 | 99 | ||
| 20260506165537 | 42 | 251 | 1.0 | 3.0 | 0.00 | 0.00 | 0.00 | 86 | |
| 20260506165037 | 41 | 0.0 | 0.0 | 0.00 | 0.01 | 0.00 | 99 | ||
| 20260506164529 | 42 | 269 | 2.0 | 6.0 | 0.00 | 0.00 | 0.00 | 88 | |
| 20260506164024 | 41 | 0.0 | 0.0 | 0.00 | 0.01 | 0.00 | 99 | ||
| 20260506163538 | 41 | 263 | 2.0 | 5.0 | 0.00 | 0.00 | 0.00 | 90 | |
| 20260506163032 | 41 | 0.0 | 0.0 | 0.00 | 0.01 | 0.00 | 99 | ||
| 20260506162527 | 41 | 251 | 1.0 | 2.0 | 0.00 | 0.00 | 0.00 | 89 | |
| 20260506162021 | 41 | 0.0 | 0.0 | 0.00 | 0.01 | 0.00 | 99 | ||
| 20260506161617 | 41 | 194 | 0.0 | 2.0 | 0.00 | 0.00 | 0.00 | 87 | |
| 20260506161051 | 42 | 0.0 | 0.0 | 0.00 | 0.01 | 0.00 | 99 | ||
| 20260506160527 | 42 | 237 | 1.0 | 3.0 | 0.00 | 0.00 | 0.00 | 86 | |
| 20260506160037 | 42 | 0.0 | 0.0 | 0.00 | 0.01 | 0.00 | 99 | ||
| 20260506155555 | 42 | 264 | 3.0 | 6.0 | 0.00 | 0.00 | 0.00 | 86 | |
| 20260506155026 | 42 | 0.0 | 0.0 | 0.00 | 0.01 | 0.00 | 99 | ||
| 20260506154543 | 42 | 269 | 3.0 | 6.0 | 0.00 | 0.00 | 0.00 | 86 | |
| 20260506154114 | 42 | 0.0 | 0.0 | 0.00 | 0.01 | 0.00 | 99 | ||
| 20260506153535 | 43 | 266 | 2.0 | 7.0 | 0.00 | 0.00 | 0.00 | 86 | |
| 20260506153024 | 42 | 0.0 | 0.0 | 0.00 | 0.01 | 0.00 | 99 | ||
| 20260506152527 | 42 | 272 | 3.0 | 7.0 | 0.00 | 0.00 | 0.00 | 88 | |
| 20260506152031 | 42 | 0.0 | 0.0 | 0.00 | 0.01 | 0.00 | 99 | ||
| 20260506151535 | 42 | 269 | 3.0 | 6.0 | 0.00 | 0.00 | 0.00 | 88 | |
| 20260506151022 | 42 | 0.0 | 0.0 | 0.00 | 0.01 | 0.00 | 99 | ||
| 20260506150527 | 42 | 268 | 2.0 | 5.0 | 0.00 | 0.00 | 0.00 | 89 | |
| 20260506150029 | 42 | 0.0 | 0.0 | 0.00 | 0.01 | 0.00 | 99 | ||
| 20260506145603 | 43 | 272 | 2.0 | 5.0 | 0.00 | 0.00 | 0.00 | 89 | |
| 20260506145036 | 42 | 0.0 | 0.0 | 0.00 | 0.01 | 0.00 | 99 | ||
| 20260506144528 | 43 | 270 | 2.0 | 5.0 | 0.00 | 0.00 | 0.00 | 90 | |
| 20260506144046 | 42 | 0.0 | 0.0 | 0.00 | 0.01 | 0.00 | 99 | ||
| 20260506143535 | 43 | 263 | 1.0 | 3.0 | 0.00 | 0.00 | 0.00 | 91 | |
| 20260506143034 | 42 | 0.0 | 0.0 | 0.00 | 0.01 | 0.00 | 99 | ||
| 20260506142527 | 43 | 257 | 2.0 | 5.0 | 0.00 | 0.00 | 0.00 | 93 | |
| 20260506142023 | 42 | 0.0 | 0.0 | 0.00 | 0.01 | 0.00 | 99 | ||
| 20260506141619 | 42 | 276 | 3.0 | 7.0 | 0.00 | 0.00 | 0.00 | 95 | |
| 20260506141031 | 42 | 0.0 | 0.0 | 0.00 | 0.01 | 0.00 | 99 | ||
| 20260506140531 | 42 | 263 | 2.0 | 7.0 | 0.00 | 0.00 | 0.00 | 96 | |
| 20260506140020 | 42 | 0.0 | 0.0 | 0.00 | 0.01 | 0.00 | 99 | ||
| 20260506135619 | 42 | 275 | 2.0 | 5.0 | 0.00 | 0.00 | 0.00 | 97 | |
| 20260506135028 | 42 | 0.0 | 0.0 | 0.00 | 0.01 | 0.01 | 99 | ||
| 20260506134527 | 42 | 202 | 0.0 | 1.0 | 0.00 | 0.00 | 0.00 | 97 | |
| 20260506134036 | 42 | 0.0 | 0.0 | 0.00 | 0.01 | 0.01 | 99 | ||
| 20260506133537 | 42 | 0.0 | 0.0 | 0.00 | 0.00 | 0.00 | 96 | ||
| 20260506133025 | 43 | 0.0 | 0.0 | 0.00 | 0.01 | 0.01 | 99 | ||
| 20260506132547 | 43 | 243 | 0.0 | 1.0 | 0.00 | 0.00 | 0.00 | 97 | |
| 20260506132034 | 43 | 0.0 | 0.0 | 0.00 | 0.01 | 0.01 | 99 | ||
| 20260506131536 | 43 | 242 | 0.0 | 2.0 | 0.00 | 0.00 | 0.00 | 97 | |
| 20260506131023 | 43 | 0.0 | 0.0 | 0.00 | 0.01 | 0.01 | 99 | ||
| 20260506130527 | 43 | 248 | 1.0 | 3.0 | 0.00 | 0.00 | 0.00 | 97 | |
| 20260506130030 | 43 | 0.0 | 0.0 | 0.00 | 0.01 | 0.01 | 99 | ||
| 20260506125535 | 43 | 256 | 2.0 | 7.0 | 0.00 | 0.00 | 0.00 | 97 | |
| 20260506125020 | 42 | 0.0 | 0.0 | 0.00 | 0.01 | 0.01 | 99 | ||
| 20260506124529 | 43 | 231 | 0.0 | 1.0 | 0.00 | 0.00 | 0.00 | 96 | |
| 20260506124048 | 43 | 0.0 | 0.0 | 0.00 | 0.01 | 0.01 | 99 | ||
| 20260506123535 | 43 | 227 | 0.0 | 1.0 | 0.00 | 0.00 | 0.00 | 96 | |
| 20260506123038 | 43 | 0.0 | 0.0 | 0.00 | 0.01 | 0.01 | 99 | ||
| 20260506122527 | 43 | 267 | 1.0 | 2.0 | 0.00 | 0.00 | 0.00 | 96 | |
| 20260506122025 | 43 | 0.0 | 0.0 | 0.00 | 0.01 | 0.01 | 99 | ||
| 20260506121556 | 43 | 247 | 1.0 | 2.0 | 0.00 | 0.00 | 0.00 | 95 | |
| 20260506121053 | 43 | 0.0 | 0.0 | 0.00 | 0.01 | 0.01 | 99 | ||
| 20260506120547 | 44 | 273 | 2.0 | 3.0 | 0.00 | 0.00 | 0.00 | 95 | |
| 20260506120022 | 44 | 0.0 | 0.0 | 0.00 | 0.01 | 0.01 | 99 | ||
| 20260506115539 | 44 | 278 | 1.0 | 2.0 | 0.00 | 0.00 | 0.00 | 95 | |
| 20260506114552 | 44 | 250 | 1.0 | 2.0 | 0.00 | 0.00 | 0.00 | 94 | |
| 20260506113535 | 45 | 252 | 1.0 | 2.0 | 0.00 | 0.00 | 0.00 | 94 | |
| 20260506112527 | 44 | 282 | 2.0 | 6.0 | 0.00 | 0.00 | 0.00 | 94 | |
| 20260506111535 | 44 | 251 | 1.0 | 2.0 | 0.00 | 0.00 | 0.00 | 94 | |
| 20260506110528 | 45 | 0.0 | 0.0 | 0.00 | 0.01 | 0.01 | 99 | ||
| 20260506105556 | 45 | 0.0 | 0.0 | 0.00 | 0.01 | 0.01 | 99 | ||
| 20260506104546 | 45 | 263 | 2.0 | 2.0 | 0.00 | 0.00 | 0.00 | 93 | |
| 20260506103537 | 45 | 245 | 1.0 | 2.0 | 0.00 | 0.00 | 0.00 | 92 | |
| 20260506102527 | 45 | 245 | 1.0 | 1.0 | 0.00 | 0.00 | 0.00 | 91 | |
| 20260506101536 | 46 | 268 | 2.0 | 3.0 | 0.00 | 0.00 | 0.00 | 91 | |
| 20260506100527 | 46 | 253 | 1.0 | 3.0 | 0.00 | 0.00 | 0.00 | 90 | |
| 20260506095535 | 47 | 259 | 1.0 | 3.0 | 0.00 | 0.00 | 0.00 | 89 | |
| 20260506094547 | 47 | 269 | 2.0 | 3.0 | 0.00 | 0.00 | 0.00 | 89 | |
| 20260506093539 | 47 | 274 | 2.0 | 5.0 | 0.00 | 0.00 | 0.00 | 88 | |
| 20260506092527 | 47 | 276 | 2.0 | 5.0 | 0.00 | 0.00 | 0.00 | 87 | |
| 20260506091535 | 48 | 269 | 2.0 | 5.0 | 0.00 | 0.00 | 0.00 | 86 | |
| 20260506090530 | 48 | 0.0 | 0.0 | 0.00 | 0.01 | 0.01 | 99 | ||
| 20260506090528 | 48 | 251 | 2.0 | 3.0 | 0.00 | 0.00 | 0.00 | 84 | |
| 20260506085535 | 49 | 263 | 2.0 | 7.0 | 0.00 | 0.00 | 0.00 | 83 | |
| 20260506084527 | 49 | 278 | 3.0 | 6.0 | 0.00 | 0.00 | 0.00 | 82 | |
| 20260506083536 | 49 | 277 | 2.0 | 5.0 | 0.00 | 0.00 | 0.00 | 80 | |
| 20260506083023 | 50 | 0.0 | 0.0 | 0.00 | 0.01 | 0.01 | 99 | ||
| 20260506082527 | 50 | 271 | 2.0 | 5.0 | 0.00 | 0.00 | 0.00 | 77 | |
| 20260506082054 | 50 | 0.0 | 0.0 | 0.00 | 0.01 | 0.01 | 99 | ||
| 20260506081535 | 50 | 267 | 2.0 | 5.0 | 0.00 | 0.00 | 0.00 | 76 | |
| 20260506081038 | 50 | 0.0 | 0.0 | 0.00 | 0.01 | 0.01 | 99 | ||
| 20260506080527 | 51 | 255 | 1.0 | 3.0 | 0.00 | 0.00 | 0.00 | 73 | |
| 20260506073031 | 52 | 0.0 | 0.0 | 0.00 | 0.01 | 0.01 | 99 | ||
| 20260506072527 | 53 | 289 | 4.0 | 8.0 | 0.00 | 0.00 | 0.00 | 63 | |
| 20260506071535 | 53 | 282 | 4.0 | 9.0 | 0.00 | 0.00 | 0.00 | 65 | |
| 20260506071524 | 53 | 0.0 | 0.0 | 0.00 | 0.01 | 0.01 | 99 | ||
| 20260506070612 | 54 | 0.0 | 0.0 | 0.00 | 0.01 | 0.01 | 99 | ||
| 20260506061536 | 57 | 285 | 4.0 | 9.0 | 0.00 | 0.00 | 0.00 | 56 | |
| 20260506061534 | 59 | 0.0 | 0.0 | 0.00 | 0.01 | 0.01 | 99 | ||
| 20260506061343 | 60 | 0.0 | 0.0 | 0.00 | 0.01 | 0.01 | 99 | ||
| 20260506060527 | 57 | 278 | 4.0 | 9.0 | 0.00 | 0.00 | 0.00 | 52 | |
| 20260506051030 | 62 | 0.0 | 0.0 | 0.00 | 0.01 | 0.01 | 99 | ||
| 20260506050528 | 59 | 269 | 6.0 | 14.0 | 0.00 | 0.00 | 0.00 | 55 | |
| 20260506045027 | 63 | 0.0 | 0.0 | 0.00 | 0.01 | 0.01 | 99 | ||
| 20260506044527 | 60 | 277 | 4.0 | 13.0 | 0.00 | 0.00 | 0.00 | 53 | |
| 20260506044035 | 64 | 293 | 0.0 | 3.0 | 0.00 | 0.01 | 0.01 | 99 | |
| 20260506043556 | 60 | 279 | 5.0 | 11.0 | 0.00 | 0.00 | 0.00 | 51 | |
| 20260506043024 | 64 | 338 | 0.0 | 4.0 | 0.00 | 0.01 | 0.01 | 99 | |
| 20260506042528 | 60 | 276 | 6.0 | 11.0 | 0.00 | 0.00 | 0.00 | 50 | |
| 20260506042033 | 64 | 0.0 | 0.0 | 0.00 | 0.01 | 0.01 | 99 | ||
| 20260506041535 | 60 | 271 | 6.0 | 13.0 | 0.00 | 0.00 | 0.00 | 53 | |
| 20260506041022 | 65 | 0.0 | 0.0 | 0.00 | 0.01 | 0.01 | 99 | ||
| 20260506040549 | 60 | 287 | 4.0 | 8.0 | 0.00 | 0.00 | 0.00 | 56 | |
| 20260506040049 | 65 | 0.0 | 0.0 | 0.00 | 0.01 | 0.01 | 99 | ||
| 20260506035536 | 60 | 287 | 4.0 | 8.0 | 0.00 | 0.00 | 0.00 | 55 | |
| 20260506035100 | 64 | 0.0 | 0.0 | 0.00 | 0.01 | 0.01 | 99 | ||
| 20260506034551 | 60 | 283 | 5.0 | 10.0 | 0.00 | 0.00 | 0.00 | 56 | |
| 20260506034109 | 63 | 0.0 | 0.0 | 0.00 | 0.01 | 0.01 | 99 | ||
| 20260506033537 | 59 | 293 | 5.0 | 11.0 | 0.00 | 0.00 | 0.00 | 58 | |
| 20260506033035 | 63 | 0.0 | 0.0 | 0.00 | 0.01 | 0.01 | 99 | ||
| 20260506032527 | 59 | 287 | 6.0 | 11.0 | 0.00 | 0.00 | 0.00 | 59 | |
| 20260506032024 | 64 | 0.0 | 0.0 | 0.00 | 0.01 | 0.01 | 99 | ||
| 20260506031535 | 60 | 276 | 5.0 | 11.0 | 0.00 | 0.00 | 0.00 | 60 | |
| 20260506031032 | 63 | 0.0 | 0.0 | 0.00 | 0.01 | 0.01 | 99 | ||
| 20260506030548 | 59 | 280 | 3.0 | 10.0 | 0.00 | 0.00 | 0.00 | 62 | |
| 20260506030023 | 63 | 0.0 | 0.0 | 0.00 | 0.01 | 0.01 | 99 | ||
| 20260506025539 | 59 | 273 | 5.0 | 11.0 | 0.00 | 0.00 | 0.00 | 61 | |
| 20260506025049 | 63 | 0.0 | 0.0 | 0.00 | 0.01 | 0.01 | 99 | ||
| 20260506024528 | 58 | 265 | 5.0 | 11.0 | 0.00 | 0.00 | 0.00 | 63 | |
| 20260506024117 | 64 | 0.0 | 0.0 | 0.00 | 0.01 | 0.01 | 99 | ||
| 20260506023556 | 58 | 271 | 4.0 | 9.0 | 0.00 | 0.00 | 0.00 | 62 | |
| 20260506023026 | 64 | 0.0 | 0.0 | 0.00 | 0.01 | 0.01 | 99 | ||
| 20260506022650 | 58 | 257 | 4.0 | 9.0 | 0.00 | 0.00 | 0.00 | 64 | |
| 20260506022034 | 64 | 0.0 | 0.0 | 0.00 | 0.01 | 0.01 | 99 | ||
| 20260506021519 | 57 | 269 | 4.0 | 10.0 | 0.00 | 0.00 | 0.00 | 65 | |
| 20260506021024 | 62 | 0.0 | 0.0 | 0.00 | 0.01 | 0.01 | 99 | ||
| 20260506020528 | 57 | 289 | 4.0 | 8.0 | 0.00 | 0.00 | 0.00 | 64 | |
| 20260506020034 | 62 | 0.0 | 3.0 | 0.00 | 0.01 | 0.01 | 99 | ||
| 20260506015519 | 57 | 293 | 4.0 | 10.0 | 0.00 | 0.00 | 0.00 | 64 | |
| 20260506015041 | 63 | 0.0 | 0.0 | 0.00 | 0.01 | 0.01 | 99 | ||
| 20260506014547 | 56 | 261 | 6.0 | 10.0 | 0.00 | 0.00 | 0.00 | 65 | |
| 20260506014030 | 63 | 0.0 | 0.0 | 0.00 | 0.01 | 0.01 | 99 | ||
| 20260506013520 | 56 | 319 | 3.0 | 6.0 | 0.00 | 0.00 | 0.00 | 66 | |
| 20260506013039 | 62 | 0.0 | 0.0 | 0.00 | 0.01 | 0.01 | 99 | ||
| 20260506012527 | 57 | 273 | 3.0 | 10.0 | 0.00 | 0.00 | 0.00 | 66 | |
| 20260506012026 | 61 | 0.0 | 0.0 | 0.00 | 0.01 | 0.01 | 99 | ||
| 20260506011520 | 57 | 300 | 3.0 | 7.0 | 0.00 | 0.00 | 0.00 | 64 | |
| 20260506011033 | 61 | 0.0 | 0.0 | 0.00 | 0.01 | 0.01 | 99 | ||
| 20260506010528 | 58 | 292 | 3.0 | 7.0 | 0.00 | 0.00 | 0.00 | 64 | |
| 20260506010023 | 61 | 0.0 | 0.0 | 0.00 | 0.01 | 0.01 | 99 | ||
| 20260506005519 | 57 | 326 | 2.0 | 5.0 | 0.00 | 0.00 | 0.00 | 66 | |
| 20260506005031 | 60 | 0.0 | 0.0 | 0.00 | 0.01 | 0.01 | 99 | ||
| 20260506004528 | 56 | 292 | 4.0 | 7.0 | 0.00 | 0.00 | 0.00 | 67 | |
| 20260506004020 | 60 | 0.0 | 0.0 | 0.00 | 0.01 | 0.01 | 99 | ||
| 20260506003520 | 57 | 292 | 4.0 | 8.0 | 0.00 | 0.00 | 0.00 | 68 | |
| 20260506003028 | 61 | 0.0 | 0.0 | 0.00 | 0.01 | 0.01 | 99 | ||
| 20260506002529 | 58 | 301 | 2.0 | 7.0 | 0.00 | 0.00 | 0.00 | 67 | |
| 20260506002038 | 59 | 0.0 | 0.0 | 0.00 | 0.01 | 0.01 | 99 | ||
| 20260506001520 | 56 | 273 | 1.0 | 3.0 | 0.00 | 0.00 | 0.00 | 74 | |
| 20260506001027 | 59 | 0.0 | 0.0 | 0.00 | 0.01 | 0.01 | 99 | ||
| 20260506000527 | 53 | 117 | 2.0 | 3.0 | 0.00 | 0.00 | 0.00 | 80 | |
| 20260506000033 | 60 | 0.0 | 0.0 | 0.00 | 0.01 | 0.01 | 99 | ||
| 20260505235519 | 53 | 124 | 1.0 | 3.0 | 0.00 | 0.00 | 0.00 | 80 | |
| 20260505235024 | 58 | 0.0 | 0.0 | 0.00 | 0.01 | 0.01 | 99 | ||
| 20260505234528 | 52 | 151 | 1.0 | 2.0 | 0.00 | 0.00 | 0.00 | 81 | |
| 20260505234034 | 56 | 0.0 | 0.0 | 0.00 | 0.01 | 0.01 | 99 | ||
| 20260505233521 | 50 | 156 | 1.0 | 2.0 | 0.00 | 0.00 | 0.00 | 84 | |
| 20260505233020 | 55 | 0.0 | 0.0 | 0.00 | 0.01 | 0.01 | 99 | ||
| 20260505232527 | 49 | 150 | 1.0 | 3.0 | 0.00 | 0.00 | 0.00 | 86 | |
| 20260505232048 | 52 | 0.0 | 0.0 | 0.00 | 0.01 | 0.01 | 99 | ||
| 20260505231521 | 49 | 161 | 1.0 | 2.0 | 0.00 | 0.00 | 0.00 | 88 | |
| 20260505231120 | 51 | 0.0 | 0.0 | 0.00 | 0.01 | 0.01 | 99 | ||
| 20260505230530 | 47 | 170 | 1.0 | 3.0 | 0.00 | 0.00 | 0.00 | 94 | |
| 20260505230025 | 49 | 0.0 | 0.0 | 0.00 | 0.01 | 0.01 | 99 | ||
| 20260505225520 | 46 | 174 | 1.0 | 2.0 | 0.00 | 0.00 | 0.00 | 97 | |
| 20260505225033 | 47 | 0.0 | 0.0 | 0.00 | 0.01 | 0.01 | 99 | ||
| 20260505224528 | 44 | 184 | 1.0 | 2.0 | 0.00 | 0.00 | 0.00 | 99 | |
| 20260505224021 | 46 | 0.0 | 0.0 | 0.00 | 0.01 | 0.01 | 99 | ||
| 20260505223519 | 43 | 176 | 1.0 | 3.0 | 0.00 | 0.00 | 0.00 | 99 | |
| 20260505223055 | 45 | 0.0 | 0.0 | 0.00 | 0.01 | 0.01 | 99 | ||
| 20260505222528 | 42 | 178 | 1.0 | 2.0 | 0.00 | 0.00 | 0.00 | 99 | |
| 20260505222102 | 44 | 0.0 | 0.0 | 0.00 | 0.01 | 0.01 | 99 |